Regional Weather Roundup
Issued by NWS Upton, NY

Current Version | Previous Version | Graphics & Text | Print | Product List | Glossary Off
Versions: 1 2 3 4 5 6 7 8 9 10 11 12 13 14 15 16 17 18 19 20 21 22 23 24 25 26 27 28 29 30 31 32 33 34 35 36 37 38 39 40 41 42 43 44 45 46 47 48 49 50

000
ASUS41 KOKX 222018
RWROKX

REGIONAL WEATHER ROUNDUP
NATIONAL WEATHER SERVICE NEW YORK NY
400 PM EDT FRI MAY 22 2015

NOTE: "FAIR" INDICATES FEW OR NO CLOUDS BELOW 12,000 FEET WITH NO
SIGNIFICANT WEATHER AND/OR OBSTRUCTIONS TO VISIBILITY.

NYZ071-072-176-178-NJZ106-104-222100-
NEW YORK CITY METRO AREA


CITY           SKY/WX    TMP DP  RH WIND       PRES   REMARKS
CENTRAL PARK   CLOUDY    68  40  35 W10G18    29.96R
LAGUARDIA APRT LGT RAIN  67  42  40 W16G25    29.93R
KENNEDY INTL   LGT RAIN  69  43  38 NW18G26   29.94R
NEWARK/LIBERTY PTSUNNY   72  43  35 NW16G23   29.93R
BRNX BOT. GARD   N/A     68  39  34 W9        29.95R
TETERBORO      CLOUDY    71  42  35 W9        29.92R
$$

NYZ177-179-078>081-222100-
LONG ISLAND NEW YORK

CITY           SKY/WX    TMP DP  RH WIND       PRES   REMARKS
FARMINGDALE    PTSUNNY   71  37  28 NW15G24   29.92R
ISLIP          PTSUNNY   72  36  26 NW15G25   29.89F
SHIRLEY        PTSUNNY   70  46  42 W10G18    29.92R
WESTHAMPTON    PTSUNNY   67  45  45 SW20G30   29.92S
MONTAUK POINT    N/A     69  44  40 SW9       29.90R
$$

NYZ052-065-067-222100-
HUDSON VALLEY

CITY           SKY/WX    TMP DP  RH WIND       PRES   REMARKS
WHITE PLAINS   PTSUNNY   70  39  32 NW16      29.91S
NEWBURGH       PTSUNNY   68  39  34 NW16G25   29.94R
MONTGOMERY     MOSUNNY   69  38  32 N15G23    29.93R
POUGHKEEPSIE   MOSUNNY   71  29  21 W20G30    29.91R
ALBANY         PTSUNNY   67  30  25 W20G29    29.94R
$$

NJZ001-105-106-008-010-013-015-019>022-104-222100-
NEW JERSEY

CITY           SKY/WX    TMP DP  RH WIND       PRES   REMARKS
NEWARK/LIBERTY PTSUNNY   72  43  35 NW16G23   29.93R
TETERBORO      CLOUDY    71  42  35 W9        29.92R
CALDWELL       CLOUDY    69  42  37 NW16G25   29.94S
MORRISTOWN     CLOUDY    70  48  46 N5        29.95R
SOMERVILLE     PTSUNNY   73  41  31 W9G16     29.93R
SUSSEX         CLOUDY    69  36  29 W13G18    29.95S
ANDOVER          N/A     61  46  57 SW9G25    29.98R
TRENTON        PTSUNNY   73  41  31 W14G26    29.96S
MILLVILLE      PTSUNNY   74  43  32 W23G31    30.02S
ATLANTIC CITY  PTSUNNY   76  41  28 W16G28    30.00R
WRIGHTSTOWN    PTSUNNY   73  41  31 W20G25    29.95S
TOMS RIVER     MOSUNNY  N/A N/A N/A W18G29    29.96F
BELMAR         MOSUNNY   72  43  35 W17G30    29.95F
$$

PAZ047>061-062-071-222100-
EASTERN PENNSYLVANIA

CITY           SKY/WX    TMP DP  RH WIND       PRES   REMARKS
PHILADELPHIA   PTSUNNY   75  39  27 W21G30    30.00S
ALLENTOWN      MOSUNNY   71  42  35 W15G26    29.97S
SCRANTON       PTSUNNY   69  36  29 NW15      29.97S
$$

CTZ002-004>006-009-010-012-RIZ004-006-007-MAZ004-011-015-222100-
SOUTHERN NEW ENGLAND
 IN CT

CITY           SKY/WX    TMP DP  RH WIND       PRES   REMARKS
BRADLEY INTL   MOSUNNY   73  31  21 NW23G30   29.87R
HARTFORD       MOSUNNY   71  34  25 NW9G22    29.87R
DANBURY        MOSUNNY   69  34  27 NW17G26   29.92R
WTRBRY/OXFORD  MOSUNNY   70  36  28 W14G25    29.92R
BRIDGEPORT     MOSUNNY   75  37  25 NW18G29   29.89R
MERIDEN        MOSUNNY   74  33  22 NW15G23   29.88R
NEW HAVEN      PTSUNNY   71  39  31 NW13G24   29.89R
CHESTER        FAIR      70  36  28 NW13G20   29.89R
GROTON         CLOUDY    65  44  46 SW13G23   29.87R
WILLIMANTIC    MOSUNNY   70  32  24 W10G25    29.86R

 IN RI

CITY           SKY/WX    TMP DP  RH WIND       PRES   REMARKS
PROVIDENCE     PTSUNNY   74  35  24 NW14G24   29.83S
BLOCK ISLAND   SUNNY     64  46  52 SW18G25   29.89S
WESTERLY       PTSUNNY   64  44  48 SW13G21   29.88R

 IN MA

CITY           SKY/WX    TMP DP  RH WIND       PRES   REMARKS
BOSTON         MOSUNNY   73  24  16 W18G28    29.80R
WORCESTER      SUNNY     67  27  22 W17G32    29.86R
WESTFIELD      NOT AVBL
PROVINCETOWN   SUNNY     66  48  52 S14G21    29.82S
NANTUCKET      SUNNY     59  51  75 SW13      29.87S
$$

ANZ330-335-338-340-345-350-353-355-222100-
COASTAL MARINE OBSERVATIONS


STATION/POSITION TIME  SKY/WX   TEMP    WIND        PRES    VSBY  WAVE
                                AIR SEA DIR/SP/G                  HT/PER
                 (UTC)          (F)     (DEG/KT/KT) (MB)    (MI)  (FT/S)
NY HARB ENTRANCE 1950            64 57  280/ 12/ 14 1013.3          2/ 3
4S FIRE IS       1903               55                N/A           2/ 4
20S FIRE ISLAND  1950            59 56  220/ 14/ 16 1013.6          2/ 3
GREAT SOUTH BAY  1915            63 64  230/ 16/ 17   N/A
23SW MTP         1950            57 55  240/ 17/ 19 1012.7          3/ 4
HUDSON CANYON    NOT AVBL
KINGS POINT      1900            68 54  330/ 11/ 15 1012.3
CENTRAL LI SOUND NOT AVBL
EASTERN LI SOUND 1900            58     240/ 16/ 19   N/A
ROBBINS REEF     1900            70     290/ 20/ 24 1011.8
$$


>>>>>>>>>>>>>>>>>>>>>>>>>>>> KEY <<<<<<<<<<<<<<<<<<<<<<<<<<<
>                                                          <
>     SKY/WX - SKY CONDITION/PRESENT WEATHER               <
>     TMP    - TEMPERATURE IN FAHRENHEIT                   <
>     DP     - DEWPOINT IN FAHRENHEIT                      <
>     RH     - RELATIVE HUMIDITY IN PERCENT                <
>     WIND   - DIRECTION AND SPEED IN MPH                  <
>     PRES   - MEAN SEA LEVEL PRESSURE IN INCHES OF HG     <
>     WCI    - WIND CHILL INDEX                            <
>     VSB    - VISIBILITY IN MILES                         <
>     HX     - HEAT INDEX                                  <
>     TC     - TEMPERATURE IN CELSIUS                      <
>     VRB    - VARIABLE WIND DIRECTION                     <
>                                                          <
>>>>>>>>>>>>>>>>>>>>>>>>>>>> KEY <<<<<<<<<<<<<<<<<<<<<<<<<<<





USA.gov is the U.S. government's official web portal to all federal, state and local government web resources and services.